Location: Willingham
(52.3167°N, 0.0667°E)
Time: 19:28:47
(UTC+00:00)

NOSS 2-1 (C) - Pass Details

Date: 19 May 2025
Orbit: 378 x 1699 km, 63.3° (Epoch: 22 June)

Event Time Altitude Azimuth Distance (km) Brightness Sun altitude
Exits shadow 22:55:15 43° 137° (SE) 590 3.0 -16.5°
Maximum altitude 22:55:22 43° 130° (SE) 586 3.1 -16.5°
Drops below altitude 10° 22:58:14 10° 57° (ENE) 1,413 5.6 -16.6°
Sets 23:00:13 0° 50° (NE) 2,260 6.8 -16.7°
